User: anonymous   Login
Location: Unspecified
(0.0000°N, 0.0000°E)
Time: 10:28:53
(UTC+00:00)
Language:

CASSIOPE - Orbit

View from above orbital plane
View from above orbital plane
View from above satellite
View from above satellite

Ground track
Ground track

The orbit data is extracted from the following two-line orbital elements,

1 39265U 13055A   20219.85172910 +.00002994 +00000-0 +83022-4 0  9999
2 39265 080.9650 261.7187 0660549 155.4691 207.9507 14.29605191355009
Epoch (UTC): 06 August 2020 20:26:29
Eccentricity: 0.0660549
inclination: 80.9650°
perigee height: 319 km
apogee height: 1267 km
right ascension of ascending node: 261.7187°
argument of perigee: 155.4691°
revolutions per day: 14.29605191
mean anomaly at epoch: 207.9507°
orbit number at epoch: 35500

The dashed part of the orbit path shows where the satellite is in the earth's shadow,  

DLR